TimeEDT,TemperatureF,Dew PointF,Humidity,Sea Level PressureIn,VisibilityMPH,Wind Direction,Wind SpeedMPH,Gust SpeedMPH,PrecipitationIn,Events,Conditions,WindDirDegrees,DateUTC
12:20 AM,46.4,32.0,57,29.91,10.0,WNW,12.7,-,N/A,,Scattered Clouds,290,2012-11-03 04:20:00
12:42 AM,44.6,32.0,61,29.91,10.0,West,13.8,20.7,N/A,,Mostly Cloudy,280,2012-11-03 04:42:00
1:03 AM,44.6,32.0,61,29.92,10.0,WNW,16.1,19.6,N/A,,Mostly Cloudy,290,2012-11-03 05:03:00
1:24 AM,44.6,32.0,61,29.91,10.0,West,12.7,19.6,N/A,,Mostly Cloudy,280,2012-11-03 05:24:00
1:45 AM,44.6,32.0,61,29.91,10.0,WNW,16.1,21.9,N/A,,Overcast,290,2012-11-03 05:45:00
2:07 AM,44.6,32.0,61,29.91,10.0,West,15.0,21.9,N/A,,Overcast,280,2012-11-03 06:07:00
2:49 AM,44.6,32.0,61,29.92,10.0,West,18.4,23.0,N/A,,Overcast,280,2012-11-03 06:49:00
3:11 AM,44.6,32.0,61,29.92,10.0,West,15.0,21.9,N/A,,Scattered Clouds,280,2012-11-03 07:11:00
3:32 AM,44.6,32.0,61,29.92,10.0,West,16.1,21.9,N/A,,Mostly Cloudy,280,2012-11-03 07:32:00
3:53 AM,44.6,30.2,57,29.92,10.0,West,16.1,24.2,N/A,,Overcast,280,2012-11-03 07:53:00
4:15 AM,44.6,30.2,57,29.92,10.0,WNW,16.1,26.5,N/A,,Scattered Clouds,290,2012-11-03 08:15:00
4:36 AM,44.6,32.0,61,29.92,10.0,West,13.8,23.0,N/A,,Mostly Cloudy,280,2012-11-03 08:36:00
4:57 AM,44.6,32.0,61,29.92,10.0,WNW,16.1,21.9,N/A,,Overcast,290,2012-11-03 08:57:00
5:18 AM,44.6,32.0,61,29.93,10.0,West,18.4,23.0,N/A,,Overcast,280,2012-11-03 09:18:00
5:40 AM,44.6,30.2,57,29.93,10.0,WNW,15.0,21.9,N/A,,Mostly Cloudy,290,2012-11-03 09:40:00
6:01 AM,44.6,32.0,61,29.94,10.0,WNW,17.3,24.2,N/A,,Scattered Clouds,290,2012-11-03 10:01:00
6:22 AM,44.6,32.0,61,29.95,10.0,WNW,16.1,-,N/A,,Scattered Clouds,300,2012-11-03 10:22:00
6:44 AM,44.6,30.2,57,29.95,10.0,WNW,17.3,24.2,N/A,,Overcast,300,2012-11-03 10:44:00
7:05 AM,44.6,30.2,57,29.96,10.0,WNW,17.3,24.2,N/A,,Overcast,300,2012-11-03 11:05:00
7:26 AM,44.6,32.0,61,29.97,10.0,WNW,13.8,20.7,N/A,,Mostly Cloudy,290,2012-11-03 11:26:00
7:47 AM,44.6,30.2,57,29.98,10.0,WNW,17.3,25.3,N/A,,Scattered Clouds,300,2012-11-03 11:47:00
8:09 AM,42.8,30.2,61,29.99,10.0,WNW,12.7,20.7,N/A,,Scattered Clouds,300,2012-11-03 12:09:00
8:51 AM,44.6,30.2,57,30.00,10.0,WNW,15.0,21.9,N/A,,Mostly Cloudy,300,2012-11-03 12:51:00
9:55 AM,44.6,30.2,57,30.01,10.0,WNW,16.1,23.0,N/A,,Mostly Cloudy,300,2012-11-03 13:55:00
10:16 AM,44.6,30.2,57,30.01,10.0,WNW,15.0,23.0,N/A,,Mostly Cloudy,290,2012-11-03 14:16:00
10:37 AM,46.4,30.2,53,30.00,10.0,WNW,19.6,27.6,N/A,,Scattered Clouds,300,2012-11-03 14:37:00
10:59 AM,46.4,30.2,53,30.00,10.0,NW,13.8,23.0,N/A,,Mostly Cloudy,310,2012-11-03 14:59:00
11:20 AM,46.4,32.0,57,30.00,10.0,NW,11.5,23.0,N/A,,Scattered Clouds,310,2012-11-03 15:20:00
11:41 AM,46.4,30.2,53,30.00,10.0,NW,13.8,20.7,N/A,,Scattered Clouds,310,2012-11-03 15:41:00
12:02 PM,46.4,30.2,53,30.00,10.0,NW,16.1,24.2,N/A,,Mostly Cloudy,310,2012-11-03 16:02:00
12:23 PM,46.4,30.2,53,30.00,10.0,WNW,17.3,26.5,N/A,,Overcast,300,2012-11-03 16:23:00
12:45 PM,46.4,32.0,57,30.00,10.0,WNW,15.0,25.3,N/A,,Overcast,300,2012-11-03 16:45:00
1:27 PM,46.4,30.2,53,29.99,10.0,NW,12.7,23.0,N/A,,Overcast,310,2012-11-03 17:27:00
1:48 PM,46.4,30.2,53,29.99,10.0,WNW,17.3,25.3,N/A,,Overcast,300,2012-11-03 17:48:00
2:10 PM,46.4,30.2,53,29.99,10.0,WNW,15.0,19.6,N/A,,Overcast,290,2012-11-03 18:10:00
2:52 PM,46.4,32.0,57,29.99,10.0,NW,19.6,26.5,N/A,,Mostly Cloudy,310,2012-11-03 18:52:00
3:13 PM,48.2,32.0,54,29.99,10.0,NW,17.3,23.0,N/A,,Mostly Cloudy,310,2012-11-03 19:13:00
3:35 PM,48.2,32.0,54,29.99,10.0,WNW,15.0,24.2,N/A,,Scattered Clouds,300,2012-11-03 19:35:00
3:56 PM,48.2,32.0,54,29.99,10.0,WNW,18.4,25.3,N/A,,Scattered Clouds,300,2012-11-03 19:56:00
4:17 PM,48.2,32.0,54,29.99,10.0,WNW,17.3,21.9,N/A,,Scattered Clouds,300,2012-11-03 20:17:00
5:00 PM,46.4,32.0,57,30.00,10.0,NW,15.0,19.6,N/A,,Overcast,310,2012-11-03 21:00:00
5:21 PM,46.4,32.0,57,30.00,10.0,WNW,15.0,20.7,N/A,,Overcast,300,2012-11-03 21:21:00
5:42 PM,46.4,32.0,57,30.01,10.0,WNW,16.1,-,N/A,,Overcast,300,2012-11-03 21:42:00
6:03 PM,46.4,32.0,57,30.01,10.0,WNW,12.7,19.6,N/A,,Overcast,290,2012-11-03 22:03:00
6:25 PM,46.4,32.0,57,30.02,10.0,WNW,16.1,20.7,N/A,,Overcast,290,2012-11-03 22:25:00
6:46 PM,46.4,32.0,57,30.02,10.0,WNW,13.8,-,N/A,,Overcast,300,2012-11-03 22:46:00
7:49 PM,46.4,32.0,57,30.03,10.0,WNW,12.7,-,N/A,,Overcast,300,2012-11-03 23:49:00
8:11 PM,46.4,32.0,57,30.03,10.0,WNW,11.5,-,N/A,,Overcast,300,2012-11-04 00:11:00
8:32 PM,46.4,32.0,57,30.03,10.0,WNW,13.8,-,N/A,,Overcast,300,2012-11-04 00:32:00
8:53 PM,46.4,32.0,57,30.04,10.0,WNW,12.7,17.3,N/A,,Overcast,290,2012-11-04 00:53:00
9:14 PM,46.4,32.0,57,30.05,10.0,WNW,11.5,16.1,N/A,,Overcast,300,2012-11-04 01:14:00
9:36 PM,46.4,32.0,57,30.05,10.0,WNW,11.5,-,N/A,,Overcast,290,2012-11-04 01:36:00
9:57 PM,46.4,32.0,57,30.05,10.0,WNW,11.5,-,N/A,,Overcast,290,2012-11-04 01:57:00
10:18 PM,46.4,32.0,57,30.05,10.0,WNW,12.7,-,N/A,,Overcast,290,2012-11-04 02:18:00
10:39 PM,46.4,32.0,57,30.06,10.0,WNW,11.5,-,N/A,,Overcast,290,2012-11-04 02:39:00
11:01 PM,44.6,32.0,61,30.06,10.0,WNW,10.4,-,N/A,,Overcast,300,2012-11-04 03:01:00
11:22 PM,44.6,32.0,61,30.06,10.0,WNW,10.4,-,N/A,,Overcast,300,2012-11-04 03:22:00
11:43 PM,44.6,32.0,61,30.07,10.0,NNW,11.5,-,N/A,,Mostly Cloudy,330,2012-11-04 03:43:00